This is the latest recevied weather packets stored in our database for station/object IZ1UQG-N2. If no packets are shown the sender has not sent any weather packets the latest 10 day(s).
| Time | Temp. | Humidity | Pressure | Rain* | Wind** | Luminosity | Snow |
|---|---|---|---|---|---|---|---|
| 1777297188 | 24.44° C | 43% | 1013.2 hPa | 0 mm | - | 659 W/m² | - |
| 1777297130 | 24.44° C | 43% | 1013.3 hPa | 0 mm | - | 661 W/m² | - |
| 1777297121 | 24.44° C | 43% | 1013.3 hPa | 0 mm | - | 661 W/m² | - |
| 1777297069 | 25° C | 44% | 1013.5 hPa | 0 mm | - | 663 W/m² | - |
| 1777297009 | 24.44° C | 44% | 1013.5 hPa | 0 mm | - | 672 W/m² | - |
| 1777296949 | 24.44° C | 45% | 1013.3 hPa | 0 mm | - | 673 W/m² | - |
| 1777296940 | 24.44° C | 45% | 1013.3 hPa | 0 mm | - | 673 W/m² | - |
| 1777296888 | 24.44° C | 44% | 1013.3 hPa | 0 mm | - | 677 W/m² | - |
| 1777296828 | 24.44° C | 43% | 1013.5 hPa | 0 mm | - | 677 W/m² | - |
| 1777296768 | 24.44° C | 44% | 1013.4 hPa | 0 mm | - | 677 W/m² | - |
| 1777296762 | 24.44° C | 44% | 1013.4 hPa | 0 mm | - | 677 W/m² | - |
| 1777296710 | 24.44° C | 44% | 1013.5 hPa | 0 mm | - | 677 W/m² | - |
| 1777296649 | 24.44° C | 44% | 1013.5 hPa | 0 mm | - | 682 W/m² | - |
| 1777296588 | 24.44° C | 43% | 1013.5 hPa | 0 mm | - | 684 W/m² | - |
| 1777296580 | 24.44° C | 43% | 1013.5 hPa | 0 mm | - | 684 W/m² | - |
| 1777296528 | 24.44° C | 44% | 1013.4 hPa | 0 mm | - | 689 W/m² | - |
| 1777296468 | 24.44° C | 44% | 1013.5 hPa | 0 mm | - | 689 W/m² | - |
| 1777296409 | 24.44° C | 44% | 1013.5 hPa | 0 mm | - | 687 W/m² | - |
| 1777296401 | 24.44° C | 44% | 1013.5 hPa | 0 mm | - | 687 W/m² | - |
| 1777296349 | 24.44° C | 45% | 1013.6 hPa | 0 mm | - | 687 W/m² | - |
| 1777296288 | 23.89° C | 45% | 1013.6 hPa | 0 mm | - | 689 W/m² | - |
| 1777296228 | 23.89° C | 45% | 1013.4 hPa | 0 mm | - | 689 W/m² | - |
| 1777296220 | 23.89° C | 45% | 1013.4 hPa | 0 mm | - | 689 W/m² | - |
| 1777296170 | 23.89° C | 44% | 1013.5 hPa | 0 mm | - | 689 W/m² | - |
| 1777296110 | 23.89° C | 44% | 1013.6 hPa | 0 mm | - | 693 W/m² | - |
* Rain latest hour (hover to see other rain measurements)
** Current wind speed in m/s (hover to see current wind gust speed)